Regional Weather Roundup
Issued by NWS

Home | Current Version | Previous Version | Text Only | Print | Product List | Glossary Off
Versions: 1 2 3 4 5 6 7 8 9 10 11 12 13 14 15 16 17 18 19 20 21 22 23 24 25 26 27 28 29 30 31 32 33 34 35 36 37 38 39 40 41 42 43 44 45 46 47 48 49 50

000
ASUS43 KBIS 210302
RWRND

NORTH DAKOTA REGIONAL WEATHER ROUNDUP
NATIONAL WEATHER SERVICE BISMARCK ND
1000 PM CDT SUN AUG 20 2017

NOTE: "FAIR" INDICATES FEW OR NO CLOUDS BELOW 12,000 FEET WITH NO
SIGNIFICANT WEATHER AND/OR OBSTRUCTIONS TO VISIBILITY.


NDZ001>003-009>011-017-210400-
NORTHWEST NORTH DAKOTA

CITY           SKY/WX    TMP DP  RH WIND       PRES   REMARKS
WILLISTON      CLOUDY    69  47  45 S9        29.98R
MINOT          MOCLDY    65  46  50 SE3       30.00R
MINOT AFB      CLOUDY    63  46  54 S5        29.99R
$$

NDZ018>021-031>035-040>046-210400-
SOUTHWEST NORTH DAKOTA

CITY           SKY/WX    TMP DP  RH WIND       PRES   REMARKS
BISMARCK       CLOUDY    60  56  86 SE6       30.04R
DICKINSON      CLOUDY    56  45  66 SE9       30.01R
GARRISON         N/A     60  51  72 S6        30.01S
HETTINGER ARPT CLEAR     60  46  59 E12       30.04R
$$

NDZ004>008-012>016-024-026-027-054-210400-
NORTHEAST NORTH DAKOTA

CITY           SKY/WX    TMP DP  RH WIND       PRES   REMARKS
GRAND FORKS    PTCLDY    57  52  83 SW5       30.00R HAZE
GRND FRKS AFB  CLEAR     55  50  83 CALM      30.01R
DEVILS LAKE    CLEAR     59  50  72 S5        30.03R
$$

NDZ022-023-025-028>030-036>039-047>053-210400-
SOUTHEAST NORTH DAKOTA

CITY           SKY/WX    TMP DP  RH WIND       PRES   REMARKS
FARGO          MOCLDY    65  53  65 SW5       30.02R
JAMESTOWN      MOCLDY    64  54  69 SW3       30.04R
$$




USA.gov is the U.S. government's official web portal to all federal, state and local government web resources and services.